IRIDIUM 171 (43929 NORAD) Tracking and Keplerian Element Data

This shows tracking and keplerian element data for the satellite.

Feedback or suggestion? Click here.




ElementValue
Catalog43929
NameIRIDIUM 171
Epoch Orbit130
Epoch Day20.62602133
Epoch Year2019
RAAN43.8067
Inclination86.4986
Eccentricity0.0001875
Argument of Perigee106.7095
Mean Anonmoly253.4317
Mean Motion14.52302218
Decay Rate4E-08
L11 43929U 19002H 19020.62602133 .00000004 00000-0 -41756-5 0 9997
L22 43929 86.4986 43.8067 0001875 106.7095 253.4317 14.52302218 1304

Live tracking and technical data element details for IRIDIUM 171 (NORAD 43929). IRIDIUM 171 can be tracked NOW for your location showing map with azimuth and elevation plus other details from your city location.

Track the satellite on the map from your city or location and see movement details for azimuth, elevation, latitude, longitude, range, height, and movement on the map or in text.







IsCatalogInMostPopularTable: catalog: 43929, numindb: 2
Update: records affected: 1



GetName: 43929 IRIDIUM 171

Hit Count: updated at: Wed, 23 Jan 2019 03:10:08 GMT